KS8S Weather Reports


time (UTC)temp
C
wind
direction
speed
KPH
gust
KPH
rain 1hr
cm
rain 24hr
cm
rain mn
cm
humidity
%
barometer
mb
20260503054526 1 240 3.2 4.8 0.00 0.00 0.00 79 1017.2
20260503053036 1 240 3.2 4.8 0.00 0.00 0.00 79 1017.2
20260503051525 2 240 4.8 4.8 0.00 0.00 0.00 78 1017.3
20260503050021 2 240 3.2 3.2 0.00 0.00 0.00 78 1017.3
20260503044529 2 240 3.2 3.2 0.00 0.00 0.00 77 1017.4
20260503043028 2 240 3.2 3.2 0.00 0.00 0.00 78 1017.3
20260503041528 2 240 1.6 1.6 0.00 0.00 0.00 78 1017.3
20260503040030 2 240 1.6 3.2 0.00 0.00 0.00 76 1017.3
20260503034538 2 240 3.2 3.2 0.00 0.00 0.00 77 1017.4
20260503033007 3 240 1.6 3.2 0.00 0.00 0.00 76 1017.4
20260503031503 3 235 4.8 4.8 0.00 0.00 0.00 77 1017.4
20260503030022 3 209 3.2 4.8 0.00 0.00 0.00 80 1017.4
20260503024520 3 209 3.2 4.8 0.00 0.00 0.00 81 1017.5
20260503023014 3 209 4.8 4.8 0.00 0.00 0.00 79 1017.5
20260503021513 5 209 4.8 6.4 0.00 0.00 0.00 76 1017.5
20260503020009 5 209 4.8 6.4 0.00 0.00 0.00 76 1017.4
20260503014531 5 263 3.2 4.8 0.00 0.00 0.00 76 1017.3
20260503013018 5 263 3.2 4.8 0.00 0.00 0.00 76 1017.2
20260503011511 5 263 3.2 4.8 0.00 0.00 0.00 76 1017.3
20260503010010 5 263 1.6 3.2 0.00 0.00 0.00 76 1017.2
20260503004510 6 263 3.2 4.8 0.00 0.00 0.00 72 1017.1
20260503003024 7 263 3.2 4.8 0.00 0.00 0.00 68 1017.1
20260503001524 7 263 3.2 3.2 0.00 0.00 0.00 59 1017.1
20260503000018 7 263 1.6 3.2 0.00 0.05 0.00 50 1017.1
20260502234515 7 267 3.2 8.0 0.00 0.05 0.00 49 1017.0
20260502233015 8 284 4.8 11.3 0.00 0.05 0.00 47 1017.0
20260502231519 8 275 9.7 16.1 0.00 0.05 0.00 44 1017.1
20260502230011 8 282 8.0 14.5 0.00 0.05 0.00 42 1017.2
20260502224524 8 284 11.3 17.7 0.00 0.05 0.00 45 1017.2
20260502223024 8 298 9.7 19.3 0.00 0.05 0.00 44 1017.2
20260502221521 8 285 16.1 19.3 0.00 0.05 0.00 42 1017.3
20260502220023 8 276 12.9 19.3 0.00 0.05 0.00 43 1017.3
20260502214527 8 268 11.3 14.5 0.00 0.05 0.00 49 1017.2
20260502213014 8 281 9.7 17.7 0.00 0.05 0.00 44 1017.3
20260502211541 8 336 8.0 20.9 0.00 0.05 0.00 45 1017.3
20260502210027 8 290 11.3 22.5 0.00 0.05 0.00 48 1017.2
20260502204524 8 314 11.3 19.3 0.00 0.05 0.00 45 1017.4
20260502203025 8 355 9.7 17.7 0.00 0.05 0.00 44 1017.4
20260502201522 8 320 6.4 16.1 0.00 0.05 0.00 47 1017.5
20260502200034 8 302 11.3 19.3 0.00 0.08 0.00 47 1017.7
20260502194531 7 348 8.0 17.7 0.00 0.10 0.00 47 1017.8
20260502193027 7 302 9.7 16.1 0.00 0.10 0.00 46 1017.9
20260502191527 7 313 8.0 19.3 0.00 0.10 0.00 46 1017.9
20260502190031 7 277 9.7 19.3 0.00 0.10 0.00 54 1018.0
20260502184526 7 305 8.0 16.1 0.00 0.10 0.00 50 1018.1
20260502183014 7 5 9.7 19.3 0.00 0.10 0.00 48 1018.2
20260502181515 7 306 6.4 16.1 0.00 0.10 0.00 47 1018.2
20260502163019 6 285 6.4 24.1 0.00 0.10 0.00 50 1018.8
20260502161516 6 292 9.7 14.5 0.00 0.10 0.00 52 1018.8
20260502151505 6 288 6.4 25.7 0.00 0.10 0.00 62 1018.8
20260502123015 2 311 9.7 17.7 0.00 0.28 0.00 73 1018.2
20260502121512 2 314 6.4 16.1 0.00 0.30 0.00 76 1018.2
20260502114525 1 330 4.8 12.9 0.00 0.36 0.00 78 1018.2
20260502113025 1 301 4.8 9.7 0.00 0.38 0.00 79 1018.1
20260502111525 0 292 4.8 8.0 0.00 0.41 0.00 80 1018.0
20260502110018 0 290 1.6 8.0 0.00 0.41 0.00 81 1017.9
20260502104514 0 311 3.2 8.0 0.00 0.41 0.00 81 1017.6
20260502103013 0 313 3.2 6.4 0.00 0.41 0.00 81 1017.7
20260502101525 0 340 1.6 4.8 0.00 0.43 0.00 80 1017.8
20260502091520 1 292 6.4 11.3 0.00 0.53 0.00 78 1017.4
20260502071525 2 285 11.3 16.1 0.00 0.84 0.00 71 1017.1
20260502070028 2 286 11.3 16.1 0.00 0.84 0.00 72 1017.1
20260502064531 2 284 8.0 14.5 0.00 0.86 0.00 72 1017.2
20260502063010 2 284 8.0 14.5 0.00 0.89 0.00 72 1017.3